CET,Max TemperatureF,Mean TemperatureF,Min TemperatureF,Max Dew PointF,MeanDew PointF,Min DewpointF,Max Humidity, Mean Humidity, Min Humidity, Max Sea Level PressureIn, Mean Sea Level PressureIn, Min Sea Level PressureIn, Max VisibilityMiles, Mean VisibilityMiles, Min VisibilityMiles, Max Wind SpeedMPH, Mean Wind SpeedMPH, Max Gust SpeedMPH,PrecipitationIn, CloudCover, Events, WindDirDegrees
2012-11-1,67,54,41,46,42,37,100,69,35,29.68,29.49,29.42,19,7,6,12,3,,0.00,1,,274
2012-11-2,69,56,42,48,44,39,100,69,31,29.89,29.82,29.68,19,7,6,15,5,28,0.00,1,,252
2012-11-3,68,59,50,54,47,43,77,63,37,29.86,29.77,29.71,16,7,6,18,7,30,0.00,1,,217
2012-11-4,71,61,51,59,52,48,94,77,51,29.71,29.64,29.53,19,7,6,24,4,,0.00,4,,250
2012-11-5,64,56,48,52,45,41,88,70,42,30.04,29.87,29.65,16,6,6,9,3,,0.00,3,,79
2012-11-6,60,52,44,50,47,44,100,87,58,30.27,30.13,30.04,19,6,0,13,2,,0.12,4,Fog-Rain,210
2012-11-7,63,50,37,46,41,34,100,83,36,30.39,30.34,30.30,16,6,2,5,1,,0.00,2,,176
2012-11-8,64,50,37,46,42,37,100,78,41,30.31,30.19,30.12,16,7,6,17,3,,0.00,4,,193
2012-11-9,66,56,46,54,47,43,100,77,45,30.09,29.98,29.86,12,6,6,7,2,,0.00,3,Rain,211
2012-11-10,66,58,51,57,53,46,100,86,61,29.86,29.73,29.65,15,7,5,12,3,,0.00,2,,207
2012-11-11,61,54,46,50,45,37,100,74,48,30.04,29.80,29.68,16,7,6,18,5,,0.00,3,,22
2012-11-12,64,55,46,39,36,34,76,56,36,30.21,30.12,30.03,19,19,19,16,9,,0.00,,,20
2012-11-13,60,51,42,48,34,23,70,49,24,30.21,30.18,30.15,12,6,6,15,10,,0.00,4,,17
2012-11-14,61,59,57,54,52,46,82,75,57,30.18,30.15,30.12,12,6,6,15,11,,0.00,7,,21
2012-11-15,68,59,50,55,50,45,100,76,48,30.18,30.13,30.06,19,6,3,9,4,,0.00,2,,34
2012-11-16,61,56,51,57,54,52,100,96,72,30.09,30.04,29.98,9,3,1,13,2,,0.00,5,,190
2012-11-17,62,58,53,59,55,52,100,97,78,29.98,29.89,29.83,9,5,2,13,3,,0.01,6,Rain,207
2012-11-18,59,56,53,57,55,52,100,98,85,29.92,29.84,29.77,7,5,1,14,6,,0.28,6,Rain,15
2012-11-19,64,55,46,52,50,46,100,86,48,30.01,29.96,29.92,12,6,6,10,3,,0.00,3,,355
2012-11-20,64,52,39,52,46,39,100,92,51,30.06,30.02,29.98,16,3,0,12,1,,0.00,1,Fog,202
2012-11-21,63,52,42,52,47,41,100,85,53,30.18,30.04,29.95,19,6,0,12,3,,0.00,2,Fog,35
2012-11-22,62,52,42,52,47,43,100,87,55,30.21,30.17,30.12,16,6,6,9,1,,0.00,3,,192
2012-11-23,66,52,37,52,45,37,100,86,40,30.17,30.12,30.06,19,5,0,16,4,,0.00,1,Fog,201
2012-11-24,66,58,51,52,50,46,100,79,49,30.12,30.07,30.04,16,6,4,23,13,29,0.00,1,,203
2012-11-25,64,54,44,54,50,45,100,88,52,30.15,30.07,30.01,9,4,2,13,4,,0.00,2,,198
2012-11-26,64,56,48,54,51,46,100,83,63,29.98,29.86,29.77,12,6,4,15,6,,0.43,5,Rain,226
2012-11-27,51,46,42,48,45,39,100,91,64,29.80,29.66,29.53,19,6,5,13,4,,0.28,6,Rain,16
2012-11-28,49,46,42,45,43,41,100,96,83,29.53,29.38,29.30,12,6,6,8,3,,0.24,5,Fog-Rain,227
2012-11-29,56,44,33,41,34,27,100,68,31,29.65,29.54,29.39,19,7,6,14,3,,0.00,2,,11
2012-11-30,54,41,28,30,27,18,100,68,22,29.71,29.62,29.56,16,7,6,6,2,,0.00,1,,157